| time (UTC) | temp F | wind direction | speed MPH | gust MPH | rain 1hr in | rain 24hr in | rain mn in | humidity % | barometer mb |
| 20260906072315 | 83 | 120 | 0.0 | 1.0 | 0.00 | 0.00 | 0.00 | 63 | 1018.5 |
| 20260906071816 | 83 | 127 | 0.0 | 1.0 | 0.00 | 0.00 | 0.00 | 64 | 1018.5 |
| 20260906071315 | 82 | 326 | 0.0 | 1.0 | 0.00 | 0.00 | 0.00 | 64 | 1018.6 |
| 20260906070816 | 82 | 80 | 0.0 | 2.0 | 0.00 | 0.00 | 0.00 | 66 | 1018.6 |
| 20260906070318 | 81 | 78 | 1.0 | 3.0 | 0.00 | 0.00 | 0.00 | 66 | 1018.5 |
| 20260906070114 | 80 | 127 | 1.0 | 5.0 | 0.00 | 0.00 | 0.00 | 69 | 1018.5 |
| 20260906065315 | 80 | 43 | 1.0 | 5.0 | 0.00 | 0.00 | 0.00 | 67 | 1018.5 |
| 20260906064815 | 80 | 49 | 0.0 | 2.0 | 0.00 | 0.00 | 0.00 | 70 | 1018.4 |
| 20260906064546 | 79 | 122 | 0.0 | 3.0 | 0.00 | 0.00 | 0.00 | 73 | 1018.4 |
| 20260906064048 | 78 | 213 | 0.0 | 3.0 | 0.00 | 0.00 | 0.00 | 74 | 1018.4 |
| 20260906063556 | 77 | 53 | 0.0 | 2.0 | 0.00 | 0.00 | 0.00 | 75 | 1018.5 |
| 20260906063043 | 76 | 96 | 1.0 | 4.0 | 0.00 | 0.00 | 0.00 | 77 | 1018.4 |
| 20260906062539 | 75 | 45 | 3.0 | 5.0 | 0.00 | 0.00 | 0.00 | 79 | 1018.5 |
| 20260906061809 | 74 | 52 | 3.0 | 5.0 | 0.00 | 0.00 | 0.00 | 80 | 1018.4 |
| 20260906061305 | 73 | 55 | 3.0 | 6.0 | 0.00 | 0.00 | 0.00 | 83 | 1018.4 |
| 20260906061036 | 72 | 62 | 1.0 | 6.0 | 0.00 | 0.00 | 0.00 | 85 | 1018.3 |
| 20260906060301 | 71 | 61 | 0.0 | 3.0 | 0.00 | 0.00 | 0.00 | 90 | 1018.2 |
| 20260906055801 | 70 | 63 | 0.0 | 1.0 | 0.00 | 0.00 | 0.00 | 92 | 1018.2 |
| 20260906055301 | 69 | 64 | 0.0 | 1.0 | 0.00 | 0.00 | 0.00 | 92 | 1018.2 |
| 20260906054759 | 69 | 125 | 0.0 | 0.0 | 0.00 | 0.00 | 0.00 | 93 | 1018.0 |
| 20260906054253 | 68 | 125 | 0.0 | 0.0 | 0.00 | 0.00 | 0.00 | 93 | 1018.1 |
| 20260906053749 | 68 | 125 | 0.0 | 0.0 | 0.00 | 0.00 | 0.00 | 93 | 1018.0 |
| 20260906053250 | 67 | 125 | 0.0 | 0.0 | 0.00 | 0.00 | 0.00 | 93 | 1017.9 |
| 20260906052749 | 67 | 125 | 0.0 | 0.0 | 0.00 | 0.00 | 0.00 | 93 | 1017.9 |
| 20260906052245 | 66 | 125 | 0.0 | 0.0 | 0.00 | 0.00 | 0.00 | 93 | 1017.8 |
| 20260906051745 | 66 | 125 | 0.0 | 0.0 | 0.00 | 0.00 | 0.00 | 92 | 1017.9 |
| 20260906051243 | 66 | 125 | 0.0 | 0.0 | 0.00 | 0.00 | 0.00 | 93 | 1017.9 |
| 20260906051011 | 66 | 125 | 0.0 | 0.0 | 0.00 | 0.00 | 0.00 | 93 | 1017.8 |
| 20260906050238 | 65 | 125 | 0.0 | 0.0 | 0.00 | 0.00 | 0.00 | 93 | 1017.9 |
| 20260906045737 | 65 | 125 | 0.0 | 0.0 | 0.00 | 0.00 | 0.00 | 92 | 1017.8 |
| 20260906045235 | 65 | 125 | 0.0 | 0.0 | 0.00 | 0.00 | 0.00 | 92 | 1017.8 |
| 20260906044731 | 65 | 125 | 0.0 | 0.0 | 0.00 | 0.00 | 0.00 | 92 | 1017.7 |
| 20260906044230 | 65 | 125 | 0.0 | 0.0 | 0.00 | 0.00 | 0.00 | 92 | 1017.6 |
| 20260906043731 | 65 | 125 | 0.0 | 0.0 | 0.00 | 0.00 | 0.00 | 92 | 1017.6 |
| 20260906043231 | 65 | 125 | 0.0 | 0.0 | 0.00 | 0.00 | 0.00 | 92 | 1017.7 |
| 20260906043005 | 65 | 125 | 0.0 | 0.0 | 0.00 | 0.00 | 0.00 | 92 | 1017.6 |
| 20260906042232 | 65 | 125 | 0.0 | 0.0 | 0.00 | 0.00 | 0.00 | 92 | 1017.6 |
| 20260906041733 | 65 | 125 | 0.0 | 0.0 | 0.00 | 0.00 | 0.00 | 92 | 1017.6 |
| 20260906041503 | 65 | 125 | 0.0 | 1.0 | 0.00 | 0.00 | 0.00 | 91 | 1017.6 |
| 20260906040732 | 65 | 125 | 0.0 | 1.0 | 0.00 | 0.00 | 0.00 | 91 | 1017.6 |
| 20260906040229 | 66 | 127 | 0.0 | 3.0 | 0.00 | 0.00 | 0.00 | 91 | 1017.6 |
| 20260906035726 | 66 | 129 | 0.0 | 3.0 | 0.00 | 0.00 | 0.00 | 91 | 1017.5 |
| 20260906035227 | 66 | 30 | 0.0 | 2.0 | 0.00 | 0.00 | 0.00 | 91 | 1017.4 |
| 20260906034725 | 66 | 39 | 0.0 | 3.0 | 0.00 | 0.00 | 0.00 | 91 | 1017.5 |
| 20260906034223 | 66 | 49 | 0.0 | 3.0 | 0.00 | 0.00 | 0.00 | 91 | 1017.4 |
| 20260906033721 | 66 | 42 | 0.0 | 0.0 | 0.00 | 0.00 | 0.00 | 91 | 1017.5 |
| 20260906033221 | 66 | 41 | 0.0 | 0.0 | 0.00 | 0.00 | 0.00 | 91 | 1017.4 |
| 20260906032721 | 66 | 42 | 0.0 | 0.0 | 0.00 | 0.00 | 0.00 | 91 | 1017.4 |
| 20260906032219 | 66 | 42 | 0.0 | 0.0 | 0.00 | 0.00 | 0.00 | 91 | 1017.4 |
| 20260906031719 | 67 | 41 | 0.0 | 0.0 | 0.00 | 0.00 | 0.00 | 91 | 1017.3 |
| 20260906031219 | 66 | 41 | 0.0 | 0.0 | 0.00 | 0.00 | 0.00 | 91 | 1017.4 |
| 20260906030731 | 67 | 42 | 0.0 | 0.0 | 0.00 | 0.00 | 0.00 | 90 | 1017.4 |
| 20260906030720 | 66 | 42 | 0.0 | 0.0 | 0.00 | 0.00 | 0.00 | 90 | 1017.4 |
| 20260906025715 | 67 | 41 | 0.0 | 0.0 | 0.00 | 0.00 | 0.00 | 90 | 1017.6 |
| 20260906025215 | 67 | 41 | 0.0 | 0.0 | 0.00 | 0.00 | 0.00 | 90 | 1017.5 |
| 20260906024715 | 67 | 41 | 0.0 | 1.0 | 0.00 | 0.00 | 0.00 | 90 | 1017.6 |
| 20260906024213 | 68 | 42 | 0.0 | 1.0 | 0.00 | 0.00 | 0.00 | 90 | 1017.6 |
| 20260906023714 | 68 | 42 | 0.0 | 0.0 | 0.00 | 0.00 | 0.00 | 90 | 1017.5 |
| 20260906023212 | 68 | 42 | 0.0 | 0.0 | 0.00 | 0.00 | 0.00 | 91 | 1017.5 |
| 20260906022713 | 68 | 42 | 0.0 | 0.0 | 0.00 | 0.00 | 0.00 | 91 | 1017.5 |
| 20260906022213 | 68 | 42 | 0.0 | 0.0 | 0.00 | 0.00 | 0.00 | 92 | 1017.5 |
| 20260906021939 | 68 | 42 | 0.0 | 0.0 | 0.00 | 0.00 | 0.00 | 92 | 1017.5 |
| 20260906021209 | 68 | 42 | 0.0 | 0.0 | 0.00 | 0.00 | 0.00 | 93 | 1017.6 |
| 20260906020706 | 68 | 42 | 0.0 | 0.0 | 0.00 | 0.00 | 0.00 | 92 | 1017.6 |
| 20260906020205 | 68 | 42 | 0.0 | 0.0 | 0.00 | 0.00 | 0.00 | 93 | 1017.5 |
| 20260906015706 | 68 | 42 | 0.0 | 0.0 | 0.00 | 0.00 | 0.00 | 92 | 1017.6 |
| 20260906015205 | 68 | 42 | 0.0 | 0.0 | 0.00 | 0.00 | 0.00 | 93 | 1017.6 |
| 20260906014705 | 68 | 42 | 0.0 | 0.0 | 0.00 | 0.00 | 0.00 | 93 | 1017.5 |
| 20260906014206 | 68 | 42 | 0.0 | 0.0 | 0.00 | 0.00 | 0.00 | 93 | 1017.5 |
| 20260906013703 | 68 | 42 | 0.0 | 0.0 | 0.00 | 0.00 | 0.00 | 93 | 1017.5 |
| 20260906013203 | 68 | 42 | 0.0 | 0.0 | 0.00 | 0.00 | 0.00 | 93 | 1017.5 |
| 20260906012930 | 68 | 42 | 0.0 | 0.0 | 0.00 | 0.00 | 0.00 | 93 | 1017.5 |
| 20260906012200 | 68 | 42 | 0.0 | 0.0 | 0.00 | 0.00 | 0.00 | 93 | 1017.6 |
| 20260906011659 | 68 | 42 | 0.0 | 0.0 | 0.00 | 0.00 | 0.00 | 93 | 1017.5 |
| 20260906011158 | 68 | 42 | 0.0 | 0.0 | 0.00 | 0.00 | 0.00 | 93 | 1017.5 |
| 20260906010658 | 68 | 42 | 0.0 | 0.0 | 0.00 | 0.00 | 0.00 | 92 | 1017.5 |
| 20260906010159 | 68 | 42 | 0.0 | 0.0 | 0.00 | 0.00 | 0.00 | 92 | 1017.5 |
| 20260906005657 | 68 | 42 | 0.0 | 0.0 | 0.00 | 0.00 | 0.00 | 92 | 1017.5 |
| 20260906005157 | 68 | 42 | 0.0 | 0.0 | 0.00 | 0.00 | 0.00 | 92 | 1017.5 |
| 20260906004658 | 69 | 42 | 0.0 | 0.0 | 0.00 | 0.00 | 0.00 | 92 | 1017.4 |
| 20260906004213 | 69 | 42 | 0.0 | 0.0 | 0.00 | 0.00 | 0.00 | 92 | 1017.5 |
| 20260906004201 | 69 | 42 | 0.0 | 0.0 | 0.00 | 0.00 | 0.00 | 92 | 1017.5 |
| 20260906003157 | 69 | 42 | 0.0 | 0.0 | 0.00 | 0.00 | 0.00 | 92 | 1017.5 |
| 20260906002657 | 69 | 42 | 0.0 | 0.0 | 0.00 | 0.00 | 0.00 | 92 | 1017.5 |
| 20260906002157 | 69 | 42 | 0.0 | 0.0 | 0.00 | 0.00 | 0.00 | 92 | 1017.7 |
| 20260906001925 | 69 | 42 | 0.0 | 0.0 | 0.00 | 0.00 | 0.00 | 92 | 1017.7 |
| 20260906001157 | 69 | 42 | 0.0 | 0.0 | 0.00 | 0.00 | 0.00 | 92 | 1017.8 |
| 20260906000926 | 69 | 42 | 0.0 | 0.0 | 0.00 | 0.00 | 0.00 | 91 | 1017.8 |
| 20260906000157 | 70 | 42 | 0.0 | 0.0 | 0.00 | 0.00 | 0.00 | 91 | 1017.8 |
| 20260905235931 | 70 | 42 | 0.0 | 0.0 | 0.00 | 0.00 | 0.00 | 91 | 1017.8 |
| 20260905235156 | 70 | 42 | 0.0 | 0.0 | 0.00 | 0.00 | 0.00 | 91 | 1017.9 |
| 20260905234656 | 69 | 42 | 0.0 | 0.0 | 0.00 | 0.00 | 0.00 | 90 | 1017.9 |
| 20260905234157 | 70 | 42 | 0.0 | 0.0 | 0.00 | 0.00 | 0.00 | 90 | 1017.9 |
| 20260905233657 | 70 | 42 | 0.0 | 0.0 | 0.00 | 0.00 | 0.00 | 90 | 1017.9 |
| 20260905233152 | 70 | 42 | 0.0 | 0.0 | 0.00 | 0.00 | 0.00 | 89 | 1017.8 |
| 20260905232638 | 71 | 42 | 0.0 | 0.0 | 0.00 | 0.00 | 0.00 | 90 | 1017.9 |
| 20260905232137 | 71 | 42 | 0.0 | 0.0 | 0.00 | 0.00 | 0.00 | 90 | 1017.8 |
| 20260905231634 | 71 | 42 | 0.0 | 0.0 | 0.00 | 0.00 | 0.00 | 90 | 1017.8 |
| 20260905231408 | 71 | 41 | 0.0 | 0.0 | 0.00 | 0.00 | 0.00 | 89 | 1017.8 |
| 20260905230633 | 71 | 41 | 0.0 | 2.0 | 0.00 | 0.00 | 0.00 | 88 | 1017.8 |
| 20260905230135 | 72 | 41 | 1.0 | 2.0 | 0.00 | 0.00 | 0.00 | 88 | 1017.8 |
| 20260905225652 | 72 | 42 | 1.0 | 4.0 | 0.00 | 0.00 | 0.00 | 88 | 1017.8 |
| 20260905225647 | 73 | 41 | 1.0 | 4.0 | 0.00 | 0.00 | 0.00 | 87 | 1017.8 |
| 20260905225634 | 72 | 42 | 1.0 | 2.0 | 0.00 | 0.00 | 0.00 | 88 | 1017.8 |
| 20260905224135 | 73 | 44 | 0.0 | 1.0 | 0.00 | 0.00 | 0.00 | 86 | 1017.8 |
| 20260905223634 | 74 | 237 | 0.0 | 0.0 | 0.00 | 0.00 | 0.00 | 85 | 1017.7 |
| 20260905223134 | 74 | 237 | 0.0 | 0.0 | 0.00 | 0.00 | 0.00 | 85 | 1017.8 |
| 20260905222632 | 74 | 184 | 0.0 | 0.0 | 0.00 | 0.00 | 0.00 | 85 | 1017.8 |
| 20260905222133 | 75 | 255 | 0.0 | 1.0 | 0.00 | 0.00 | 0.00 | 85 | 1017.9 |
| 20260905221909 | 75 | 258 | 1.0 | 3.0 | 0.00 | 0.00 | 0.00 | 85 | 1017.8 |
| 20260905221128 | 75 | 245 | 1.0 | 3.0 | 0.00 | 0.00 | 0.00 | 86 | 1017.7 |
| 20260905220630 | 74 | 259 | 1.0 | 3.0 | 0.00 | 0.00 | 0.00 | 88 | 1017.8 |
| 20260905220126 | 75 | 240 | 1.0 | 2.0 | 0.00 | 0.00 | 0.00 | 89 | 1017.7 |
| 20260905215626 | 74 | 261 | 0.0 | 2.0 | 0.00 | 0.00 | 0.00 | 90 | 1017.8 |
| 20260905215126 | 74 | 264 | 0.0 | 1.0 | 0.00 | 0.00 | 0.00 | 89 | 1017.7 |
| 20260905214624 | 74 | 257 | 0.0 | 1.0 | 0.00 | 0.00 | 0.00 | 89 | 1017.7 |
| 20260905214125 | 74 | 252 | 0.0 | 1.0 | 0.00 | 0.00 | 0.00 | 89 | 1017.7 |
| 20260905213624 | 75 | 248 | 0.0 | 1.0 | 0.00 | 0.00 | 0.00 | 89 | 1017.8 |
| 20260905213118 | 75 | 258 | 0.0 | 1.0 | 0.00 | 0.00 | 0.00 | 89 | 1017.8 |
| 20260905212615 | 75 | 256 | 0.0 | 2.0 | 0.00 | 0.00 | 0.00 | 89 | 1017.8 |
| 20260905212132 | 75 | 260 | 1.0 | 3.0 | 0.00 | 0.00 | 0.00 | 89 | 1017.7 |
| 20260905212118 | 75 | 260 | 1.0 | 3.0 | 0.00 | 0.00 | 0.00 | 89 | 1017.8 |
| 20260905211109 | 75 | 266 | 1.0 | 3.0 | 0.00 | 0.00 | 0.00 | 89 | 1017.7 |
| 20260905210842 | 75 | 251 | 0.0 | 2.0 | 0.00 | 0.00 | 0.00 | 90 | 1017.7 |
| 20260905210116 | 74 | 239 | 0.0 | 1.0 | 0.00 | 0.00 | 0.00 | 90 | 1017.6 |
| 20260905205605 | 74 | 229 | 0.0 | 0.0 | 0.00 | 0.00 | 0.00 | 90 | 1017.6 |
| 20260905205105 | 74 | 250 | 0.0 | 0.0 | 0.00 | 0.00 | 0.00 | 89 | 1017.6 |
| 20260905204605 | 74 | 260 | 0.0 | 0.0 | 0.00 | 0.00 | 0.00 | 89 | 1017.7 |
| 20260905204105 | 74 | 260 | 0.0 | 0.0 | 0.00 | 0.00 | 0.00 | 89 | 1017.6 |
| 20260905203841 | 74 | 260 | 0.0 | 0.0 | 0.00 | 0.00 | 0.00 | 89 | 1017.6 |
| 20260905203103 | 74 | 261 | 0.0 | 1.0 | 0.00 | 0.00 | 0.00 | 90 | 1017.6 |
| 20260905202602 | 74 | 259 | 0.0 | 1.0 | 0.00 | 0.00 | 0.00 | 90 | 1017.6 |
| 20260905202100 | 74 | 259 | 0.0 | 1.0 | 0.00 | 0.00 | 0.00 | 90 | 1017.6 |
| 20260905201828 | 74 | 261 | 0.0 | 1.0 | 0.00 | 0.00 | 0.00 | 90 | 1017.6 |
| 20260905201050 | 74 | 248 | 0.0 | 1.0 | 0.00 | 0.00 | 0.00 | 90 | 1017.6 |
| 20260905200826 | 74 | 313 | 0.0 | 0.0 | 0.00 | 0.00 | 0.00 | 90 | 1017.6 |
| 20260905200100 | 74 | 313 | 0.0 | 0.0 | 0.00 | 0.00 | 0.00 | 90 | 1017.5 |
| 20260905195548 | 74 | 313 | 0.0 | 0.0 | 0.00 | 0.00 | 0.00 | 88 | 1017.6 |
| 20260905195048 | 74 | 313 | 0.0 | 0.0 | 0.00 | 0.00 | 0.00 | 88 | 1017.6 |
| 20260905194548 | 75 | 312 | 0.0 | 0.0 | 0.00 | 0.00 | 0.00 | 88 | 1017.6 |
| 20260905194047 | 75 | 313 | 0.0 | 0.0 | 0.00 | 0.00 | 0.00 | 88 | 1017.5 |
| 20260905193547 | 76 | 313 | 0.0 | 0.0 | 0.00 | 0.00 | 0.00 | 88 | 1017.5 |
| 20260905193043 | 76 | 313 | 0.0 | 0.0 | 0.00 | 0.00 | 0.00 | 88 | 1017.5 |
| 20260905192540 | 76 | 313 | 0.0 | 0.0 | 0.00 | 0.00 | 0.00 | 88 | 1017.5 |
| 20260905192053 | 77 | 319 | 0.0 | 0.0 | 0.00 | 0.00 | 0.00 | 88 | 1017.4 |
| 20260905191538 | 77 | 319 | 0.0 | 0.0 | 0.00 | 0.00 | 0.00 | 88 | 1017.4 |
| 20260905191034 | 77 | 319 | 0.0 | 0.0 | 0.00 | 0.00 | 0.00 | 88 | 1017.3 |
| 20260905190534 | 77 | 320 | 0.0 | 2.0 | 0.00 | 0.00 | 0.00 | 87 | 1017.3 |
| 20260905190032 | 77 | 319 | 0.0 | 2.0 | 0.00 | 0.00 | 0.00 | 87 | 1017.3 |
| 20260905185531 | 78 | 281 | 0.0 | 1.0 | 0.00 | 0.00 | 0.00 | 86 | 1017.2 |
| 20260905185031 | 78 | 274 | 0.0 | 1.0 | 0.00 | 0.00 | 0.00 | 86 | 1017.2 |
| 20260905184529 | 78 | 279 | 0.0 | 1.0 | 0.00 | 0.00 | 0.00 | 86 | 1017.0 |
| 20260905184307 | 78 | 274 | 0.0 | 1.0 | 0.00 | 0.00 | 0.00 | 86 | 1017.1 |
| 20260905183529 | 79 | 276 | 0.0 | 3.0 | 0.00 | 0.00 | 0.00 | 85 | 1017.0 |
| 20260905183031 | 79 | 274 | 1.0 | 3.0 | 0.00 | 0.00 | 0.00 | 85 | 1017.0 |
| 20260905182528 | 79 | 264 | 1.0 | 3.0 | 0.00 | 0.00 | 0.00 | 85 | 1016.9 |
| 20260905182028 | 79 | 252 | 1.0 | 3.0 | 0.00 | 0.00 | 0.00 | 84 | 1017.0 |
| 20260905181529 | 79 | 263 | 1.0 | 3.0 | 0.00 | 0.00 | 0.00 | 84 | 1017.0 |
| 20260905181030 | 80 | 259 | 1.0 | 4.0 | 0.00 | 0.00 | 0.00 | 84 | 1016.9 |
| 20260905180807 | 80 | 240 | 1.0 | 4.0 | 0.00 | 0.00 | 0.00 | 83 | 1016.9 |
| 20260905180029 | 80 | 267 | 2.0 | 4.0 | 0.00 | 0.00 | 0.00 | 83 | 1016.8 |
| 20260905175529 | 80 | 261 | 1.0 | 4.0 | 0.00 | 0.00 | 0.00 | 83 | 1016.8 |
| 20260905175031 | 80 | 253 | 1.0 | 4.0 | 0.00 | 0.00 | 0.00 | 83 | 1016.8 |
| 20260905174801 | 81 | 253 | 1.0 | 3.0 | 0.00 | 0.00 | 0.00 | 83 | 1016.8 |
| 20260905174024 | 81 | 250 | 2.0 | 4.0 | 0.00 | 0.00 | 0.00 | 82 | 1016.7 |
| 20260905173523 | 81 | 236 | 2.0 | 4.0 | 0.00 | 0.00 | 0.00 | 81 | 1016.8 |
| 20260905173053 | 82 | 247 | 2.0 | 6.0 | 0.00 | 0.00 | 0.00 | 79 | 1016.7 |
| 20260905173040 | 82 | 266 | 2.0 | 6.0 | 0.00 | 0.00 | 0.00 | 80 | 1016.7 |
| 20260905172023 | 83 | 265 | 2.0 | 7.0 | 0.00 | 0.00 | 0.00 | 78 | 1016.7 |
| 20260905171526 | 83 | 226 | 2.0 | 7.0 | 0.00 | 0.00 | 0.00 | 76 | 1016.5 |
| 20260905171023 | 84 | 254 | 2.0 | 6.0 | 0.00 | 0.00 | 0.00 | 74 | 1016.5 |
| 20260905170523 | 84 | 215 | 2.0 | 6.0 | 0.00 | 0.00 | 0.00 | 73 | 1016.6 |
| 20260905170023 | 84 | 244 | 2.0 | 6.0 | 0.00 | 0.00 | 0.00 | 72 | 1016.5 |
| 20260905165522 | 85 | 224 | 3.0 | 7.0 | 0.00 | 0.00 | 0.00 | 70 | 1016.5 |
| 20260905165023 | 85 | 226 | 3.0 | 7.0 | 0.00 | 0.00 | 0.00 | 69 | 1016.4 |
| 20260905164524 | 85 | 240 | 4.0 | 7.0 | 0.00 | 0.00 | 0.00 | 68 | 1016.4 |
| 20260905164018 | 85 | 251 | 3.0 | 7.0 | 0.00 | 0.00 | 0.00 | 67 | 1016.4 |
| 20260905163514 | 85 | 249 | 3.0 | 7.0 | 0.00 | 0.00 | 0.00 | 67 | 1016.3 |
| 20260905163014 | 85 | 252 | 4.0 | 10.0 | 0.00 | 0.00 | 0.00 | 68 | 1016.4 |
| 20260905162757 | 86 | 238 | 5.0 | 12.0 | 0.00 | 0.00 | 0.00 | 67 | 1016.4 |
| 20260905162013 | 86 | 217 | 4.0 | 12.0 | 0.00 | 0.00 | 0.00 | 66 | 1016.5 |
| 20260905161513 | 86 | 240 | 4.0 | 8.0 | 0.00 | 0.00 | 0.00 | 65 | 1016.6 |
| 20260905161013 | 86 | 229 | 4.0 | 8.0 | 0.00 | 0.00 | 0.00 | 66 | 1016.5 |
| 20260905160521 | 86 | 263 | 4.0 | 10.0 | 0.00 | 0.00 | 0.00 | 68 | 1016.5 |
| 20260905160013 | 87 | 269 | 3.0 | 10.0 | 0.00 | 0.00 | 0.00 | 67 | 1016.6 |
| 20260905155513 | 87 | 233 | 3.0 | 7.0 | 0.00 | 0.00 | 0.00 | 67 | 1016.7 |
| 20260905155014 | 87 | 218 | 4.0 | 8.0 | 0.00 | 0.00 | 0.00 | 68 | 1016.6 |
| 20260905154513 | 87 | 244 | 5.0 | 9.0 | 0.00 | 0.00 | 0.00 | 69 | 1016.6 |
| 20260905154013 | 87 | 231 | 5.0 | 9.0 | 0.00 | 0.00 | 0.00 | 69 | 1016.6 |
| 20260905153755 | 87 | 208 | 5.0 | 10.0 | 0.00 | 0.00 | 0.00 | 69 | 1016.6 |
| 20260905153013 | 87 | 245 | 5.0 | 10.0 | 0.00 | 0.00 | 0.00 | 69 | 1016.6 |
| 20260905152749 | 87 | 198 | 5.0 | 11.0 | 0.00 | 0.00 | 0.00 | 69 | 1016.7 |
| 20260905152013 | 86 | 255 | 5.0 | 13.0 | 0.00 | 0.00 | 0.00 | 66 | 1016.7 |
| 20260905151512 | 87 | 220 | 6.0 | 14.0 | 0.00 | 0.00 | 0.00 | 70 | 1016.7 |
| 20260905151019 | 86 | 233 | 7.0 | 14.0 | 0.00 | 0.00 | 0.00 | 69 | 1016.6 |
| 20260905150514 | 86 | 205 | 7.0 | 12.0 | 0.00 | 0.00 | 0.00 | 69 | 1016.8 |
| 20260905150013 | 86 | 256 | 7.0 | 13.0 | 0.00 | 0.00 | 0.00 | 68 | 1016.8 |
| 20260905145747 | 86 | 248 | 7.0 | 13.0 | 0.00 | 0.00 | 0.00 | 67 | 1016.8 |
| 20260905145011 | 86 | 215 | 7.0 | 13.0 | 0.00 | 0.00 | 0.00 | 69 | 1016.7 |
| 20260905144511 | 86 | 267 | 7.0 | 13.0 | 0.00 | 0.00 | 0.00 | 68 | 1016.7 |
| 20260905144010 | 86 | 253 | 7.0 | 13.0 | 0.00 | 0.00 | 0.00 | 69 | 1016.8 |
| 20260905143508 | 87 | 242 | 7.0 | 14.0 | 0.00 | 0.00 | 0.00 | 68 | 1016.7 |
| 20260905143253 | 87 | 282 | 7.0 | 15.0 | 0.00 | 0.00 | 0.00 | 69 | 1016.7 |
| 20260905142504 | 87 | 251 | 7.0 | 15.0 | 0.00 | 0.00 | 0.00 | 69 | 1016.8 |
| 20260905142007 | 87 | 221 | 7.0 | 16.0 | 0.00 | 0.00 | 0.00 | 67 | 1016.9 |
| 20260905141505 | 87 | 259 | 8.0 | 16.0 | 0.00 | 0.00 | 0.00 | 68 | 1017.0 |
| 20260905141008 | 87 | 207 | 7.0 | 13.0 | 0.00 | 0.00 | 0.00 | 68 | 1017.0 |
| 20260905140503 | 87 | 252 | 6.0 | 11.0 | 0.00 | 0.00 | 0.00 | 66 | 1017.0 |
| 20260905140005 | 87 | 266 | 6.0 | 15.0 | 0.00 | 0.00 | 0.00 | 68 | 1017.0 |
| 20260905135502 | 87 | 252 | 7.0 | 15.0 | 0.00 | 0.00 | 0.00 | 67 | 1017.1 |
| 20260905135002 | 87 | 260 | 7.0 | 13.0 | 0.00 | 0.00 | 0.00 | 65 | 1017.1 |
| 20260905134502 | 87 | 255 | 6.0 | 13.0 | 0.00 | 0.00 | 0.00 | 64 | 1017.1 |
| 20260905134002 | 87 | 221 | 7.0 | 13.0 | 0.00 | 0.00 | 0.00 | 67 | 1017.0 |
| 20260905133459 | 87 | 233 | 6.0 | 13.0 | 0.00 | 0.00 | 0.00 | 67 | 1017.0 |
| 20260905133000 | 87 | 221 | 6.0 | 12.0 | 0.00 | 0.00 | 0.00 | 67 | 1016.9 |
| 20260905132458 | 87 | 219 | 6.0 | 12.0 | 0.00 | 0.00 | 0.00 | 68 | 1017.0 |
| 20260905131959 | 87 | 231 | 6.0 | 12.0 | 0.00 | 0.00 | 0.00 | 65 | 1017.0 |
| 20260905131456 | 87 | 245 | 6.0 | 12.0 | 0.00 | 0.00 | 0.00 | 65 | 1017.0 |
| 20260905131026 | 88 | 222 | 6.0 | 11.0 | 0.00 | 0.00 | 0.00 | 65 | 1017.2 |
| 20260905131012 | 87 | 252 | 6.0 | 12.0 | 0.00 | 0.00 | 0.00 | 66 | 1017.1 |
| 20260905130458 | 87 | 226 | 6.0 | 11.0 | 0.00 | 0.00 | 0.00 | 67 | 1017.1 |
| 20260905125454 | 88 | 226 | 5.0 | 11.0 | 0.00 | 0.00 | 0.00 | 64 | 1017.2 |
| 20260905124954 | 88 | 245 | 5.0 | 12.0 | 0.00 | 0.00 | 0.00 | 64 | 1017.2 |
| 20260905124452 | 88 | 181 | 5.0 | 12.0 | 0.00 | 0.00 | 0.00 | 66 | 1017.2 |
| 20260905123951 | 88 | 228 | 5.0 | 10.0 | 0.00 | 0.00 | 0.00 | 65 | 1017.3 |
| 20260905123451 | 88 | 249 | 5.0 | 11.0 | 0.00 | 0.00 | 0.00 | 64 | 1017.3 |
| 20260905123224 | 87 | 233 | 5.0 | 13.0 | 0.00 | 0.00 | 0.00 | 64 | 1017.4 |
| 20260905122453 | 87 | 236 | 6.0 | 13.0 | 0.00 | 0.00 | 0.00 | 66 | 1017.4 |
| 20260905121953 | 87 | 238 | 5.0 | 12.0 | 0.00 | 0.00 | 0.00 | 67 | 1017.4 |
| 20260905121451 | 87 | 229 | 6.0 | 12.0 | 0.00 | 0.00 | 0.00 | 68 | 1017.2 |
| 20260905120945 | 87 | 243 | 6.0 | 12.0 | 0.00 | 0.00 | 0.00 | 66 | 1017.3 |
| 20260905120717 | 87 | 234 | 6.0 | 12.0 | 0.00 | 0.00 | 0.00 | 68 | 1017.4 |
| 20260905115946 | 87 | 224 | 6.0 | 12.0 | 0.00 | 0.00 | 0.00 | 69 | 1017.4 |
| 20260905115446 | 87 | 221 | 7.0 | 13.0 | 0.00 | 0.00 | 0.00 | 69 | 1017.5 |
| 20260905114944 | 87 | 262 | 6.0 | 13.0 | 0.00 | 0.00 | 0.00 | 66 | 1017.4 |
| 20260905114441 | 87 | 207 | 6.0 | 13.0 | 0.00 | 0.00 | 0.00 | 65 | 1017.5 |
| 20260905114212 | 87 | 236 | 7.0 | 13.0 | 0.00 | 0.00 | 0.00 | 67 | 1017.5 |
| 20260905113442 | 87 | 237 | 6.0 | 11.0 | 0.00 | 0.00 | 0.00 | 69 | 1017.5 |
| 20260905113211 | 87 | 275 | 7.0 | 11.0 | 0.00 | 0.00 | 0.00 | 65 | 1017.4 |
| 20260905112441 | 88 | 272 | 7.0 | 13.0 | 0.00 | 0.00 | 0.00 | 64 | 1017.5 |
| 20260905111939 | 88 | 219 | 7.0 | 13.0 | 0.00 | 0.00 | 0.00 | 59 | 1017.4 |
| 20260905111440 | 89 | 225 | 6.0 | 12.0 | 0.00 | 0.00 | 0.00 | 59 | 1017.4 |
| 20260905110940 | 90 | 240 | 5.0 | 10.0 | 0.00 | 0.00 | 0.00 | 54 | 1017.3 |
| 20260905110438 | 91 | 212 | 4.0 | 10.0 | 0.00 | 0.00 | 0.00 | 51 | 1017.5 |
| 20260905105936 | 90 | 214 | 4.0 | 12.0 | 0.00 | 0.00 | 0.00 | 50 | 1017.4 |
| 20260905105437 | 90 | 252 | 3.0 | 12.0 | 0.00 | 0.00 | 0.00 | 49 | 1017.4 |
| 20260905104935 | 90 | 247 | 3.0 | 10.0 | 0.00 | 0.00 | 0.00 | 48 | 1017.6 |
| 20260905104435 | 89 | 218 | 3.0 | 10.0 | 0.00 | 0.00 | 0.00 | 50 | 1017.5 |
| 20260905103933 | 89 | 231 | 3.0 | 9.0 | 0.00 | 0.00 | 0.00 | 51 | 1017.5 |
| 20260905103433 | 89 | 223 | 4.0 | 9.0 | 0.00 | 0.00 | 0.00 | 56 | 1017.6 |
| 20260905102934 | 89 | 208 | 4.0 | 11.0 | 0.00 | 0.00 | 0.00 | 57 | 1017.5 |
| 20260905102431 | 89 | 250 | 4.0 | 11.0 | 0.00 | 0.00 | 0.00 | 55 | 1017.6 |
| 20260905101932 | 88 | 257 | 5.0 | 11.0 | 0.00 | 0.00 | 0.00 | 54 | 1017.7 |
| 20260905101432 | 89 | 256 | 5.0 | 11.0 | 0.00 | 0.00 | 0.00 | 56 | 1017.8 |
| 20260905101159 | 90 | 262 | 4.0 | 11.0 | 0.00 | 0.00 | 0.00 | 55 | 1017.8 |
| 20260905100430 | 90 | 212 | 3.0 | 9.0 | 0.00 | 0.00 | 0.00 | 51 | 1017.6 |
| 20260905095933 | 90 | 260 | 3.0 | 9.0 | 0.00 | 0.00 | 0.00 | 50 | 1017.7 |
| 20260905095927 | 90 | 271 | 2.0 | 7.0 | 0.00 | 0.00 | 0.00 | 51 | 1017.6 |
| 20260905095202 | 90 | 273 | 3.0 | 7.0 | 0.00 | 0.00 | 0.00 | 49 | 1017.6 |
| 20260905094425 | 89 | 225 | 3.0 | 7.0 | 0.00 | 0.00 | 0.00 | 47 | 1017.7 |
| 20260905093931 | 89 | 207 | 4.0 | 8.0 | 0.00 | 0.00 | 0.00 | 50 | 1017.8 |
| 20260905093917 | 89 | 169 | 4.0 | 8.0 | 0.00 | 0.00 | 0.00 | 51 | 1017.7 |
| 20260905092913 | 89 | 219 | 3.0 | 9.0 | 0.00 | 0.00 | 0.00 | 49 | 1017.9 |
| 20260905092413 | 89 | 228 | 4.0 | 9.0 | 0.00 | 0.00 | 0.00 | 50 | 1017.8 |
| 20260905091913 | 89 | 202 | 4.0 | 8.0 | 0.00 | 0.00 | 0.00 | 49 | 1017.7 |
| 20260905091413 | 89 | 267 | 3.0 | 7.0 | 0.00 | 0.00 | 0.00 | 48 | 1017.5 |
| 20260905090913 | 89 | 193 | 3.0 | 7.0 | 0.00 | 0.00 | 0.00 | 49 | 1017.5 |
| 20260905090412 | 89 | 200 | 3.0 | 8.0 | 0.00 | 0.00 | 0.00 | 49 | 1017.6 |
| 20260905085910 | 89 | 180 | 4.0 | 8.0 | 0.00 | 0.00 | 0.00 | 49 | 1017.6 |
| 20260905085410 | 89 | 231 | 4.0 | 8.0 | 0.00 | 0.00 | 0.00 | 50 | 1017.5 |
| 20260905084909 | 90 | 207 | 2.0 | 8.0 | 0.00 | 0.00 | 0.00 | 49 | 1017.5 |
| 20260905084421 | 91 | 212 | 2.0 | 6.0 | 0.00 | 0.00 | 0.00 | 46 | 1017.4 |
| 20260905083909 | 91 | 217 | 1.0 | 4.0 | 0.00 | 0.00 | 0.00 | 43 | 1017.4 |
| 20260905083407 | 91 | 176 | 1.0 | 4.0 | 0.00 | 0.00 | 0.00 | 45 | 1017.4 |
| 20260905082914 | 91 | 75 | 0.0 | 3.0 | 0.00 | 0.00 | 0.00 | 45 | 1017.4 |
| 20260905082407 | 90 | 245 | 1.0 | 3.0 | 0.00 | 0.00 | 0.00 | 45 | 1017.4 |
| 20260905081907 | 89 | 255 | 1.0 | 4.0 | 0.00 | 0.00 | 0.00 | 43 | 1017.3 |
| 20260905081423 | 89 | 232 | 0.0 | 3.0 | 0.00 | 0.00 | 0.00 | 45 | 1017.3 |
| 20260905081412 | 89 | 291 | 1.0 | 4.0 | 0.00 | 0.00 | 0.00 | 44 | 1017.3 |
| 20260905080407 | 89 | 243 | 0.0 | 3.0 | 0.00 | 0.00 | 0.00 | 49 | 1017.4 |
| 20260905075907 | 88 | 193 | 0.0 | 2.0 | 0.00 | 0.00 | 0.00 | 49 | 1017.4 |
| 20260905075407 | 88 | 176 | 0.0 | 3.0 | 0.00 | 0.00 | 0.00 | 49 | 1017.4 |
| 20260905074907 | 88 | 357 | 0.0 | 3.0 | 0.00 | 0.00 | 0.00 | 50 | 1017.3 |
| 20260905074407 | 87 | 212 | 0.0 | 2.0 | 0.00 | 0.00 | 0.00 | 52 | 1017.3 |
| 20260905073909 | 86 | 122 | 1.0 | 2.0 | 0.00 | 0.00 | 0.00 | 53 | 1017.2 |
| 20260905073634 | 86 | 217 | 1.0 | 2.0 | 0.00 | 0.00 | 0.00 | 53 | 1017.2 |
| 20260905072908 | 87 | 229 | 0.0 | 2.0 | 0.00 | 0.00 | 0.00 | 53 | 1017.2 |